Weather History for Estherville, IA

Change the Weather History Date:

Monday, January 21, 2013

  Actual Average Record
Temperature  
Mean Temperature -2 °F 16 °F  
Max Temperature 5 °F 24 °F 48 °F (1964)
Min Temperature -9 °F 7 °F -30 °F (1970)
Degree Days  
Heating Degree Days 67 49  
Month to date heating degree days 964 1042  
Since 1 July heating degree days 3892 4185  
Cooling Degree Days 0 0  
Month to date cooling degree days 0 0  
Year to date cooling degree days 0 0  
Moisture  
Dew Point -10 °F    
Average Humidity 67    
Maximum Humidity 72    
Minimum Humidity 61    
Precipitation  
Precipitation T in 0.02 in 0.15 in (1949)
Month to date precipitation 0.13 0.25  
Sea Level Pressure  
Sea Level Pressure 30.40 in    
Wind  
Wind Speed 16 mph (NW)    
Max Wind Speed 26 mph    
Max Gust Speed 33 mph    
Visibility 10 miles    
Events Snow    
T = Trace of Precipitation, MM = Missing Value Source: NWS Daily Summary

Daily Weather History Graph

Daily Weather History Graph

Search for Another Location

Airport:

Trip Planner

Search our weather history database for the weather conditions in past years. The results will help you decide how hot, cold, wet, or windy it might be!

Date:

Astronomy

Jan. 21, 2013 Rise Set
Actual Time 7:44 AM CST 5:16 PM CST
Civil Twilight 7:13 AM CST 5:47 PM CST
Nautical Twilight 6:38 AM CST 6:22 PM CST
Astronomical Twilight 6:04 AM CST 6:56 PM CST
Moon 12:56 PM CST (1/21) 3:14 AM CST (1/21)
Length of Visible Light 10h 34m
Length of Day
9h 31m
Waxing Gibbous, 75% of the Moon is Illuminated
Jan 21
Waxing Gibbous
Jan 26
Full
Feb 3
Last Quarter
Feb 10
New
Feb 17
First Quarter

Hourly Weather History & Observations

Time (CST) Temp. Windchill Dew Point Humidity Pressure Visibility Wind Dir Wind Speed Gust Speed Precip Events Conditions
12:52 AM -0.0 °F -21.3 °F -8.0 °F 69% 30.39 in 10.0 mi NW 18.4 mph - N/A   Partly Cloudy
1:09 AM -0.4 °F -20.5 °F -5.8 °F 78% 30.29 in 2.5 mi NW 16.1 mph - 0.00 in Snow Light Snow
1:25 AM -0.4 °F -20.5 °F -5.8 °F 78% 30.30 in 6.0 mi NW 16.1 mph - 0.00 in   Haze
1:45 AM -0.4 °F -22.8 °F -9.4 °F 66% 30.30 in 10.0 mi NW 20.7 mph - 0.00 in   Scattered Clouds
1:52 AM -2.0 °F -25.0 °F -9.9 °F 69% 30.41 in 10.0 mi NW 20.7 mph - 0.00 in   Partly Cloudy
2:52 AM -4.0 °F -26.4 °F -13.0 °F 65% 30.43 in 10.0 mi NW 18.4 mph 26.5 mph N/A   Clear
3:52 AM -8.0 °F -32.8 °F -17.0 °F 65% 30.43 in 10.0 mi NW 20.7 mph 31.1 mph N/A   Clear
4:52 AM -8.0 °F -32.2 °F -17.0 °F 65% 30.44 in 10.0 mi NW 19.6 mph - N/A   Clear
5:52 AM -9.0 °F -32.4 °F -17.0 °F 68% 30.43 in 10.0 mi NW 17.3 mph 25.3 mph N/A   Clear
6:52 AM -9.0 °F -30.2 °F -17.0 °F 68% 30.43 in 10.0 mi NW 13.8 mph - N/A   Clear
7:52 AM -8.0 °F -31.0 °F -16.1 °F 68% 30.42 in 10.0 mi NW 17.3 mph - N/A   Clear
8:52 AM -7.1 °F -29.8 °F -15.0 °F 68% 30.44 in 10.0 mi NW 17.3 mph - N/A   Clear
9:52 AM -4.0 °F -26.4 °F -14.1 °F 62% 30.46 in 10.0 mi WNW 18.4 mph - N/A   Clear
10:52 AM -2.0 °F -23.9 °F -11.9 °F 63% 30.46 in 10.0 mi WNW 18.4 mph - N/A   Clear
11:52 AM 1.0 °F -19.9 °F -9.9 °F 60% 30.44 in 10.0 mi WNW 18.4 mph - N/A   Clear
12:52 PM 1.9 °F -18.1 °F -8.0 °F 63% 30.40 in 10.0 mi WNW 17.3 mph - N/A   Clear
1:52 PM 5.0 °F -15.7 °F -5.1 °F 63% 30.38 in 10.0 mi WNW 20.7 mph 25.3 mph N/A   Clear
2:52 PM 5.0 °F -14.2 °F -6.0 °F 61% 30.38 in 10.0 mi WNW 17.3 mph 27.6 mph N/A   Clear
3:52 PM 5.0 °F -15.2 °F -6.0 °F 61% 30.39 in 10.0 mi WNW 19.6 mph 23.0 mph N/A   Clear
4:52 PM 3.9 °F -15.6 °F -6.0 °F 64% 30.39 in 10.0 mi WNW 17.3 mph - N/A   Clear
5:52 PM 1.9 °F -15.5 °F -7.1 °F 66% 30.40 in 10.0 mi WNW 12.7 mph - N/A   Clear
7:52 PM -0.0 °F -18.0 °F -8.0 °F 69% 30.40 in 10.0 mi WNW 12.7 mph - N/A   Clear
8:52 PM -0.9 °F -18.3 °F -8.0 °F 72% 30.40 in 10.0 mi WNW 11.5 mph - N/A   Clear
10:52 PM -2.0 °F -15.4 °F -9.0 °F 72% 30.40 in 10.0 mi West 6.9 mph - N/A   Clear
11:52 PM -2.0 °F -15.4 °F -8.0 °F 76% 30.40 in 10.0 mi West 6.9 mph - N/A   Clear